Volver al catálogo

STARLINK-32221

ActivoComunicacionesVLEO
NORAD 60342·PAYLOAD·🇺🇸 United States

Lanzado Aug 2, 2024 desde Cape Canaveral Space Force Station

Loading…

Próximos Pases (próximas 24 horas)

TLE

ActualizadoSource: CelesTrak SupGP

Época: Sep 14, 2026, 20:50 UTC

1 60342C 24136P   26257.86854167  .00037198  00000+0  10993-2 0  2576
2 60342  53.1577 275.7327 0001145  92.6567 346.6365 15.34363445    16

Sigue STARLINK-32221 en tiempo real con AllMySat

Download on the App Store